Dewpoint
64 64 64 64 64 65 64 64 63 63 64 64 64 63 63 62 61 59 59 58 58 57 57 56 56 56 56 57 57 56 56 56 52 50 50 51 47 46 53 50 50 50 50 51 47 47 45 40 39 42 46 46 46 47 48 45 45 45 47 39 39 38 40
64 64 64 64 64 63 63 62 62 62 62 62 62 62 61 61 60 57 56 56 56 56 56 55 55 55 55 55 54 54 53 54 54 53 51 50 51 51 51 51 49 48 48 48 49 49 48 45 42 39 41 46 48 48 48 44 45 47 47 39 39 37 43
64 64 64 63 62 62 62 62 61 61 61 60 60 60 59 58 57 55 54 53 53 54 55 54 54 54 55 55 54 53 52 51 52 52 51 50 50 49 49 49 48 47 45 45 46 47 47 46 42 42 42 44 42 42 49 41 40 43 36 32 34 31 35
63 63 62 62 62 62 62 61 61 61 60 60 60 60 59 57 56 56 55 56 56 56 54 53 54 54 54 53 53 53 52 51 51 51 51 50 49 48 47 47 47 47 45 45 45 46 45 44 45 41 43 45 44 37 36 47 36 28 26 30 32 32 34
63 62 62 61 62 62 62 61 61 61 60 60 60 58 57 57 56 56 56 54 53 52 51 52 53 54 54 54 54 54 53 53 53 51 49 48 48 47 47 47 47 46 46 45 46 46 44 44 45 43 41 42 37 31 39 33 28 26 26 27 29 32 33
63 62 62 61 62 62 61 61 60 60 59 58 58 57 57 56 56 55 54 54 53 53 53 53 53 53 53 53 52 52 51 51 51 50 49 48 47 46 46 47 46 46 46 46 44 44 45 43 43 41 43 43 34 29 26 27 28 31 27 28 30 32 32
62 62 62 62 62 62 61 61 60 60 59 58 57 56 56 55 54 54 53 51 51 51 52 52 52 52 52 52 52 51 51 50 50 49 48 48 48 47 46 45 45 45 45 46 44 44 42 41 41 41 42 42 41 27 30 26 28 30 30 30 30 32 34
62 62 62 62 62 61 61 61 60 59 59 58 57 56 55 54 54 53 52 52 52 53 53 53 53 52 52 52 52 52 51 49 48 48 47 47 46 45 45 46 46 46 45 46 45 45 44 43 42 43 42 38 36 33 33 34 31 30 32 33 33 32 34
62 62 62 62 62 62 61 60 60 59 58 57 57 56 55 53 53 53 53 52 53 52 51 51 51 52 52 51 50 49 49 50 48 47 47 46 45 45 45 45 44 44 46 46 46 46 45 43 42 42 43 42 38 36 38 33 34 33 34 34 35 36 36
62 61 61 62 62 61 60 60 59 59 57 57 57 55 54 54 54 52 51 52 52 52 52 51 50 50 50 50 50 50 49 48 48 47 47 46 47 47 46 45 44 44 45 45 43 45 46 44 43 42 42 42 43 39 37 35 33 34 35 38 37 36 38
62 62 62 61 61 60 60 59 59 57 56 57 56 55 54 54 54 52 50 51 51 50 49 49 49 51 51 50 49 49 50 49 48 48 48 46 45 45 46 45 45 44 45 42 43 43 43 43 42 41 41 43 43 41 40 36 34 36 37 40 40 38 38
62 62 61 61 60 59 59 58 58 57 56 56 55 54 53 53 52 51 51 51 51 50 49 50 51 50 49 49 49 47 47 46 45 46 46 45 45 44 44 43 43 44 45 45 42 40 41 41 43 43 42 42 42 42 41 39 36 38 40 38 41 42 37
62 61 60 60 59 59 58 57 57 56 55 55 54 53 53 52 51 50 50 50 50 50 50 50 50 49 49 48 48 48 47 46 46 45 46 46 46 45 44 44 45 45 44 43 43 43 41 41 41 42 43 43 42 42 42 40 37 36 41 39 41 41 40
61 60 59 59 58 58 57 56 55 55 54 54 53 52 52 51 49 50 50 50 49 49 49 49 49 49 49 48 47 46 45 45 44 44 45 44 44 43 43 42 42 43 44 42 41 42 42 41 41 42 42 42 42 43 41 39 37 38 40 42 42 41 38
61 60 59 58 57 57 56 55 55 54 54 54 53 52 51 50 50 49 49 49 49 49 48 48 49 48 47 46 47 47 45 43 43 43 43 43 44 45 42 41 40 42 43 42 42 40 40 41 42 41 42 42 41 42 42 40 38 37 35 39 39 36 35
60 59 58 57 57 56 55 55 54 54 53 53 52 51 51 50 49 49 48 48 48 48 48 48 48 47 47 47 45 44 45 45 44 43 42 42 42 43 44 44 44 44 44 42 42 42 41 40 41 41 41 43 40 41 42 41 38 35 36 37 40 33 35
59 58 57 57 56 55 55 54 54 54 53 53 52 52 51 50 48 48 48 47 47 47 48 48 46 46 46 46 45 45 45 44 43 42 42 43 43 42 42 42 42 42 43 41 41 40 40 40 40 40 39 40 40 40 41 42 41 36 36 37 36 34 37
59 58 57 56 55 55 54 54 54 53 53 53 52 51 50 48 47 47 48 47 46 47 47 46 45 46 46 45 44 44 43 43 43 42 43 43 47 43 44 42 44 43 43 42 41 40 40 40 40 40 39 39 39 41 41 40 39 37 39 36 34 35 35
58 57 56 55 55 54 53 53 53 53 53 51 50 50 49 47 46 46 46 46 46 46 46 45 45 46 45 44 44 44 45 44 43 43 43 43 43 43 43 43 44 44 44 44 44 44 42 39 38 38 37 37 38 39 37 36 37 34 38 36 32 32 34
58 57 56 55 54 54 53 53 53 52 52 51 50 49 49 47 47 46 45 46 46 46 45 45 45 45 44 44 45 45 43 42 42 42 41 42 42 40 40 40 40 40 41 41 41 42 42 40 38 37 39 38 37 36 35 35 34 34 36 36 33 34 33
57 56 56 55 54 54 54 53 52 52 51 50 49 49 48 47 46 45 45 45 46 46 45 44 44 44 44 45 45 43 42 42 42 42 41 39 38 37 36 35 36 37 38 38 38 40 40 38 35 33 35 37 36 35 34 35 34 34 36 36 34 32 34
57 56 55 54 54 54 53 52 51 51 51 50 50 49 48 46 45 44 45 45 45 45 45 45 45 44 45 44 43 42 43 43 42 40 38 36 36 35 34 35 35 38 43 44 43 45 47 42 34 28 33 35 36 33 33 33 35 35 36 37 35 34 32
56 55 55 54 54 53 52 51 51 51 50 50 49 49 47 45 44 44 44 44 44 45 45 45 48 47 46 43 42 43 43 42 41 39 37 34 32 32 35 38 43 39 41 40 41 38 38 41 42 35 33 31 32 30 32 31 32 35 37 36 36 32 31
56 55 54 54 54 53 52 52 51 50 50 49 49 48 46 44 44 44 44 44 44 45 46 46 44 41 42 44 44 43 42 42 41 38 34 30 29 32 35 37 39 40 41 41 36 36 35 35 35 35 36 41 43 33 28 27 31 34 35 35 36 34 31
55 54 54 54 53 53 52 51 50 50 49 49 48 47 44 44 44 43 44 44 45 45 44 45 40 40 41 41 44 43 42 42 40 35 32 29 28 29 32 36 39 38 33 34 33 34 36 36 34 34 34 35 35 34 36 32 30 27 31 32 34 35 32
55 54 54 54 53 52 52 50 50 49 49 49 48 45 44 44 43 44 44 44 43 42 40 40 39 40 40 40 41 43 42 42 37 34 31 28 27 31 36 39 40 42 42 38 43 36 36 35 38 38 39 39 39 38 34 32 35 36 33 33 34 35 34
54 54 54 53 53 52 51 50 50 49 49 49 46 45 45 44 44 44 44 43 41 40 39 40 38 39 39 39 39 41 42 41 37 33 32 30 31 32 38 41 42 43 43 42 40 40 40 38 35 33 34 34 35 38 39 38 37 36 39 37 34 33 36
54 53 53 53 52 51 51 50 50 49 49 47 46 45 44 44 45 45 44 42 40 39 40 38 37 38 38 39 40 41 41 42 42 40 39 36 35 38 39 39 37 37 36 34 39 37 37 36 37 40 40 37 34 33 35 36 36 36 37 37 35 35 36
54 53 53 52 52 51 51 50 49 49 48 48 47 47 46 45 45 45 44 41 40 39 39 37 37 37 37 38 41 45 44 43 42 40 40 39 39 38 37 36 37 37 32 28 37 37 36 37 35 36 39 41 41 38 38 41 38 38 40 39 38 38 36
54 53 52 52 51 51 51 50 49 49 48 48 47 46 45 45 46 45 44 41 39 38 37 37 36 36 37 40 43 44 43 42 41 40 40 41 40 40 42 40 38 35 30 26 34 34 35 38 36 38 40 41 40 40 39 41 40 39 38 37 36 36 36
53 52 52 51 51 51 51 51 50 49 48 47 46 45 45 45 46 46 43 41 39 37 36 37 36 36 38 40 43 42 41 41 41 40 40 41 42 43 47 46 42 34 30 28 34 34 35 40 37 39 41 38 36 33 32 36 35 35 35 36 37 37 37
53 52 52 51 52 52 51 51 50 49 48 48 47 46 45 45 45 45 43 41 43 38 37 38 37 36 37 38 42 41 40 39 39 39 39 40 40 41 41 45 45 38 31 32 33 33 34 39 37 40 41 38 36 33 31 31 29 29 31 32 31 33 34
53 52 52 52 52 52 52 51 49 48 48 47 46 45 44 44 45 44 43 42 42 41 42 40 38 36 37 37 39 42 41 41 39 38 38 40 38 38 35 35 39 35 32 31 32 32 32 34 35 36 38 36 31 26 33 27 31 33 31 32 31 33 35
53 53 52 52 52 52 51 50 49 49 48 47 46 45 45 45 44 43 43 43 43 43 42 40 39 37 36 36 36 39 40 41 39 38 37 39 37 37 36 31 31 32 30 30 30 32 33 34 35 36 38 32 28 30 30 26 30 35 29 32 33 34 35
52 53 52 52 52 52 51 50 49 49 50 47 46 46 46 45 44 43 43 44 42 41 43 41 39 37 36 35 35 38 40 38 40 41 36 35 37 34 34 32 27 30 30 30 31 31 33 34 34 39 34 26 28 29 29 33 31 30 29 31 31 33 34
52 53 53 52 52 52 51 50 49 49 48 47 46 45 45 44 43 43 42 42 42 41 40 40 38 36 36 35 35 35 37 36 36 42 41 39 39 34 31 32 32 33 30 30 30 31 32 33 35 35 33 31 30 31 31 29 30 30 29 30 32 33 34
53 53 53 53 52 51 51 50 49 47 46 46 45 44 44 43 42 42 41 41 41 39 38 37 37 36 35 35 35 34 34 34 36 38 41 40 36 35 36 31 32 32 30 30 30 30 32 31 29 33 32 31 30 32 29 29 28 31 31 31 32 35 34